CZ-11 R/B, 43161

Orbit data source: Space-Track

CZ-11 R/B, 43161 is space debris in SSO originally from a launch on Fri, 19 Jan 2018 UTC launched from the Jiuquan Satellite Launch Center, China (JSC). Debris objects in space refer to the collection of defunct objects orbiting the Earth. Examples of debris include non-operational satellites, rocket bodies, and fragments generated from explosions, collisions, or faulty payload assembly.

Loading next visibility...
Identifier
43161, 2018-008G
Orbit
SSO
Country
Flag of CNCN / PRC
Related business
Manufacturer
CALT
Mission
Spacecraft
Bus & Motor
CZ-11-4, Unknown motor
Mass
500 kg wet, 500 kg dry
Launch date (UTC)
2018-01-19 (8 years ago)
Launch vehicle
Unknown
Launch site
Jiuquan Satellite Launch Center, China (JSC)
Object type
Payload
Rocket body
Debris
Shape & HBR
Cyl, 0.8 m
Radar Cross Section
2.651 m², Large (>1 m²)

Expand to show TLE details & history
Last TLE update: 13 hours ago

TLE from 13 hours ago
0 CZ-11 R/B
1 43161U 18008G   26167.95360207  .00000750  00000-0  14187-3 0  9992
2 43161  98.2424 153.0048 0363514  90.4276 273.8563 14.32408636438632
Epoch: 2026-06-16T22:53Z
TLE epoch observation values (Epoch: 2026-06-16T22:53:11.218Z)
Latitude
-0.00012°
Longitude
-95.51016°
Altitude
778.579 km
Speed
7.469 km/s
True Right ascension
10h 12m 01s
True Declination
0° 00' 00"
Sunlit
Object was in daylight at epoch
Visualization orbit readout
Latitude
Unknown
Longitude
Unknown
Altitude
Unknown
Speed
Unknown
Apparent Right ascension
Unknown
Apparent Declination
Unknown
Sunlit
N/A
Visualization observer readout
Local Sidereal Time
22:23:17
Azimuth
Unknown
Elevation
Unknown
Doppler factor
Unknown
Orbital elements
Apogee altitude
1,041.043 km
Perigee altitude
520.568 km
Semi-major axis
7,158.942 km
Eccentricity
0.03635
Inclination
98.2424°
RAAN
153.0048°
Arg. of periapsis
90.4276°
True anomaly
269.6911°
Mean anomaly
273.8563°
Eccentric anomaly
271.77452°
Mean motion
3.58319 °/min
Orbital period
100.47 mins
BSTAR
0.00014187
Loading maneuver chart data...
Computing Atmospheric mass density...
Loading historical data...
Loading historical data...
Loading historical data...
Loading historical data...
Loading historical data...
Loading historical data...
Loading historical data...

Documentation

Showing up to 5 results
|